Location: Marcé
(47.5801°N, 0.3280°W)
Time: 08:13:34
(UTC+01:00)

Explorer 7 - Pass Details

Date: 09 December 2021
Orbit: 483 x 674 km, 50.3° (Epoch: 24 January)

Event Time Altitude Azimuth Distance (km) Brightness Sun altitude
Rises 09:54:05 0° 290° (WNW) 2,725 9.8 8.8°
Reaches altitude 10° 09:56:24 10° 287° (WNW) 1,796 9.0 9.1°
Maximum altitude 10:00:24 58° 208° (SSW) 607 7.4 9.5°
Drops below altitude 10° 10:04:10 10° 129° (SE) 1,700 11.6 9.9°
Sets 10:06:19 0° 125° (SE) 2,563 11.9 10.2°
